Notices

What's New in latest Release from April 7th, 2021:

- Updated Glossary, including Speed of Maximum Gust, and Total Hourly Precipitation

- Updated national and regional climate services offices contacts and prices information

- Addition of station inventory lists for 1981-2010, 1971-2000, and 1961-1990 Normals.

If you haven't already, please take our survey and provide feedback about our website: https://eccc.sondage-survey.ca/f/LanguageSelection.aspx?s=442ca660-fcf1-47c0-95a9-59707d6fd709

Hourly Data Report for November 19, 2020

SHEARWATER RCS
NOVA SCOTIA
Current Station Operator: ECCC - MSC

44°37'47.000" N
63°30'48.000" W
24.00 m
8205092
71264
AAW

Download Data

Hourly Data (November 2020)
Hourly Data Report for November 19, 2020
TIME
LST
Temp Definition
°C
Dew Point Definition
°C
Rel Hum Definition
%
Precip. Amount Definition
mm

Wind Dir Definition
10's deg

Wind Spd Definition
km/h
Visibility Definition
km
Stn Press Definition
kPa
Hmdx Definition


Wind Chill Definition


Weather Definition


00:00 -2.3 -11.3 50 0.0 31 21   102.18   -8 LegendNANA
01:00 -2.5 -10.8 53 0.0 31 18   102.23   -8 LegendNANA
02:00 -2.9 -10.9 54 0.0 31 17   102.33   -8 LegendNANA
03:00 -3.4 -10.3 59 0.0 32 9   102.39   -7 LegendNANA
04:00 -3.1 -9.5 61 0.0 31 12   102.46   -8 LegendNANA
05:00 -3.1 -9.4 62 0.0 31 14   102.53   -8 LegendNANA
06:00 -3.3 -9.4 63 0.0 31 14   102.63   -8 LegendNANA
07:00 -3.2 -9.1 64 0.0 29 15   102.73   -8 LegendNANA
08:00 -2.6 -8.8 62 0.0 29 15   102.81   -8 LegendNANA
09:00 -2.0 -9.0 59 0.0 29 13   102.85   -6 LegendNANA
10:00 -1.1 -9.9 51 0.0 29 14   102.87   -6 LegendNANA
11:00 -0.6 -10.4 48 0.0 29 15   102.91   -5 LegendNANA
12:00 0.4 -8.8 50 0.0 28 12   102.89     LegendNANA
13:00 1.0 -10.2 43 0.0 29 12   102.83     LegendNANA
14:00 1.0 -10.0 44 0.0 26 13   102.85     LegendNANA
15:00 0.8 -9.3 47 0.0 25 15   102.82     LegendNANA
16:00 0.9 -8.2 50 0.0 24 16   102.81     LegendNANA
17:00 1.0 -7.3 54 0.0 24 13   102.80     LegendNANA
18:00 1.1 -6.1 59 0.0 22 12   102.71     LegendNANA
19:00 1.6 -4.6 63 0.0 23 10   102.73     LegendNANA
20:00 2.2 -3.3 67 0.0 22 7   102.64     LegendNANA
21:00 3.1 -1.7 70 0.0 21 6   102.60     LegendNANA
22:00 4.5 0.2 74 0.0 22 11   102.52     LegendNANA
23:00 6.1 1.4 72 0.0 24 16   102.52     LegendNANA

Notes on Data Quality.

Legend

  • E = Estimated
  • M = Missing
  • NA = Not Available*
  • [empty] = Indicates an unobserved value
Date modified: